STARLINK-1329, 45531

Orbit data source: Space-Track

STARLINK-1329, 45531 is a payload satellite owned by SpaceX/Seattle (US) in LEO that was launched on Wed, 22 Apr 2020 UTC via an FALCON 9 launch vehicle from the Air Force Eastern Test Range (AFETR). Payload-class satellites include a variety of spacecraft equipped with specific instruments for various scientific and technological missions. These include communications satellites like Starlink; space stations such as the ISS; scientific satellites like the Hubble; Earth observation satellites from companies like Planet Labs, Umbra, and HawkEye 360; GPS; miniature CubeSats for education and research; and military/defense satellites.

Loading next visibility...
Identifier
45531, 2020-025A
Orbit
LEO
Country
Flag of USUS
Related business
Manufacturer
SpaceX/Seattle
Mission
Partially operational Commercial Communications
Bus & Motor
STARLINK, Unknown motor
Mass
260 kg wet, ~248 kg dry
Launch date (UTC)
2020-04-22 (6 years ago)
Launch vehicle
FALCON 9
Launch site
Air Force Eastern Test Range (AFETR)
Object type
Payload
Rocket body
Debris
Shape & HBR
Box + 1 Pan, 10.1 m
Radar Cross Section
13.562 m², Large (>1 m²)

Expand to show TLE details & history
Last TLE update: 1 day ago

TLE from 1 day ago
0 STARLINK-1329
1 45531U 20025A   26034.00953260  .00104283  00000-0  18903-2 0  9998
2 45531  53.0527 248.4058 0008032 129.5492 230.6227 15.48787931320064
Epoch: 2026-02-03T00:13Z
TLE epoch observation values (Epoch: 2026-02-03T00:13:43.616Z)
Latitude
0.00003°
Longitude
111.77747°
Altitude
424.633 km
Speed
7.656 km/s
True Right ascension
16h 33m 37s
True Declination
0° 00' 00"
Sunlit
Object was in daylight at epoch
Visualization orbit readout
Latitude
Unknown
Longitude
Unknown
Altitude
Unknown
Speed
Unknown
Apparent Right ascension
Unknown
Apparent Declination
Unknown
Sunlit
N/A
Visualization observer readout
Local Sidereal Time
13:29:54
Azimuth
Unknown
Elevation
Unknown
Doppler factor
Unknown
Orbital elements
Apogee altitude
426.007 km
Perigee altitude
415.086 km
Semi-major axis
6,798.684 km
Eccentricity
0.0008
Inclination
53.0527°
RAAN
248.4058°
Arg. of periapsis
129.5492°
True anomaly
230.5516°
Mean anomaly
230.6227°
Eccentric anomaly
230.58715°
Mean motion
3.87174 °/min
Orbital period
92.98 mins
BSTAR
0.0018903
Loading maneuver chart data...
Computing Atmospheric mass density...

Documentation

Showing up to 5 results
|